Weather History for Sheridan, WY

Change the Weather History Date:

Saturday, October 13, 2012

  Actual Average Record
Temperature  
Mean Temperature 55 °F 46 °F  
Max Temperature 66 °F 61 °F 86 °F (1996)
Min Temperature 44 °F 32 °F 11 °F (1969)
Degree Days  
Heating Degree Days 10 18  
Month to date heating degree days 244 211  
Since 1 July heating degree days 394 514  
Cooling Degree Days 0 0  
Month to date cooling degree days 0 0  
Year to date cooling degree days 664 418  
Growing Degree Days 5 (Base 50)    
Moisture  
Dew Point 35 °F    
Average Humidity 50    
Maximum Humidity 76    
Minimum Humidity 24    
Precipitation  
Precipitation 0.00 in 0.05 in 1.10 in (1942)
Month to date precipitation 0.49 0.71  
Year to date precipitation 7.48 12.19  
Sea Level Pressure  
Sea Level Pressure 29.92 in    
Wind  
Wind Speed 7 mph (NW)    
Max Wind Speed 29 mph    
Max Gust Speed 36 mph    
Visibility 10 miles    
Events      
T = Trace of Precipitation, MM = Missing Value Source: NWS Daily Summary

Daily Weather History Graph

Daily Weather History Graph

Search for Another Location

Airport:

Trip Planner

Search our weather history database for the weather conditions in past years. The results will help you decide how hot, cold, wet, or windy it might be!

Date:

Astronomy

Oct. 13, 2012 Rise Set
Actual Time 7:21 AM MDT 6:25 PM MDT
Civil Twilight 6:52 AM MDT 6:55 PM MDT
Nautical Twilight 6:18 AM MDT 7:28 PM MDT
Astronomical Twilight 5:44 AM MDT 8:02 PM MDT
Moon 5:10 AM MDT (10/13) 5:13 PM MDT (10/13)
Length of Visible Light 12h 03m
Length of Day
11h 04m
Waning Crescent, 4% of the Moon is Illuminated
Oct 13
Waning Crescent
Oct 15
New
Oct 21
First Quarter
Oct 29
Full
Nov 6
Last Quarter

Hourly Weather History & Observations

Time (MDT) Temp. Windchill Dew Point Humidity Pressure Visibility Wind Dir Wind Speed Gust Speed Precip Events Conditions
12:53 AM 45.0 °F 42.6 °F 37.0 °F 74% 29.74 in 10.0 mi South 4.6 mph - N/A   Clear
1:53 AM 50.0 °F - 37.0 °F 61% 29.72 in 10.0 mi Calm Calm - N/A   Partly Cloudy
2:53 AM 51.1 °F - 36.0 °F 56% 29.71 in 10.0 mi Calm Calm - N/A   Partly Cloudy
3:53 AM 52.0 °F - 37.0 °F 57% 29.73 in 10.0 mi West 8.1 mph - N/A   Clear
4:53 AM 52.0 °F - 36.0 °F 54% 29.76 in 10.0 mi NNW 10.4 mph - N/A   Clear
5:53 AM 48.0 °F - 34.0 °F 58% 29.81 in 10.0 mi NW 4.6 mph - N/A   Clear
6:53 AM 48.0 °F - 33.1 °F 56% 29.86 in 10.0 mi West 3.5 mph - N/A   Clear
7:53 AM 45.0 °F 41.8 °F 33.1 °F 63% 29.91 in 10.0 mi SSE 5.8 mph - N/A   Clear
8:53 AM 52.0 °F - 34.0 °F 50% 29.92 in 10.0 mi Calm Calm - N/A   Clear
9:53 AM 55.0 °F - 34.0 °F 45% 29.91 in 10.0 mi Calm Calm - N/A   Clear
10:53 AM 63.0 °F - 28.9 °F 28% 29.91 in 10.0 mi North 5.8 mph - N/A   Clear
11:53 AM 64.0 °F - 28.9 °F 27% 29.89 in 10.0 mi NNW 6.9 mph - N/A   Clear
12:53 PM 66.0 °F - 28.0 °F 24% 29.89 in 10.0 mi NW 6.9 mph - N/A   Partly Cloudy
1:53 PM 64.4 °F - 30.2 °F 28% 29.94 in 10.0 mi NW 13.8 mph - N/A   Mostly Cloudy
2:53 PM 62.1 °F - 30.9 °F 31% 29.93 in 10.0 mi NW 6.9 mph - N/A   Overcast
3:53 PM 59.0 °F - 39.0 °F 48% 29.95 in 10.0 mi NNW 18.4 mph - N/A   Overcast
4:53 PM 59.0 °F - 39.0 °F 48% 29.96 in 10.0 mi NNW 12.7 mph - N/A   Mostly Cloudy
5:53 PM 57.2 °F - 39.2 °F 51% 30.02 in 10.0 mi NW 4.6 mph - N/A   Overcast
6:53 PM 55.0 °F - 39.9 °F 57% 30.02 in 10.0 mi WNW 4.6 mph - N/A   Overcast
7:53 PM 51.8 °F - 37.4 °F 58% 30.06 in 10.0 mi WNW 8.1 mph - N/A   Scattered Clouds
8:53 PM 54.0 °F - 37.0 °F 53% 30.06 in 10.0 mi WNW 11.5 mph - N/A   Mostly Cloudy
9:53 PM 52.0 °F - 36.0 °F 54% 30.07 in 10.0 mi WNW 13.8 mph - N/A   Partly Cloudy
10:53 PM 48.2 °F - 35.6 °F 62% 30.11 in 10.0 mi WNW 11.5 mph - N/A   Clear
11:53 PM 48.9 °F - 34.0 °F 56% 30.08 in 10.0 mi West 9.2 mph - N/A   Clear